Wind_Speed
13 12 12 12 11 11 11 11 11 12 12 13 13 12 12 12 11 11 11 11 11 11 11 11 11 11 11 11 11 11 11 12 12 12 12 12 12 12 12 12 12 12 13 13
13 13 13 13 12 12 12 12 12 13 13 14 13 13 12 12 12 12 12 12 12 12 12 12 12 12 12 13 12 12 12 12 12 12 13 13 13 13 13 13 13 13 13 14
13 13 13 13 13 12 12 12 13 14 14 14 14 13 13 12 13 13 13 13 13 12 12 12 12 13 13 13 13 13 13 13 13 13 13 14 14 14 14 14 14 14 14 14
13 13 13 13 13 13 12 13 14 14 14 14 14 14 13 13 14 14 14 14 13 13 13 13 13 13 13 13 13 13 14 14 13 13 14 14 14 15 15 15 15 15 15 15
14 13 13 13 13 13 13 13 14 14 14 15 15 15 14 14 14 14 14 14 14 13 13 14 14 14 14 13 14 14 14 14 14 14 14 15 15 15 16 16 16 16 16 16
14 14 13 13 13 13 13 14 14 14 15 15 14 15 14 13 14 14 14 14 14 14 14 14 14 14 14 14 14 14 14 15 15 15 15 15 16 16 16 16 16 16 16 16
15 15 14 14 14 14 14 14 14 15 15 15 15 15 14 13 13 14 15 15 15 15 15 15 15 15 15 15 16 15 15 15 16 16 16 16 16 16 16 16 16 16 16 16
16 16 15 15 15 15 15 15 15 16 16 16 15 15 14 13 13 14 15 15 15 16 16 16 16 16 16 17 17 16 16 16 16 16 16 16 17 17 16 16 16 16 17 17
16 17 16 16 16 16 16 16 16 16 17 16 16 15 15 15 15 14 15 15 16 16 16 16 17 17 17 18 18 17 17 17 17 17 17 17 18 17 17 17 17 17 18 18
17 18 17 17 17 17 17 17 17 17 17 17 16 16 16 16 15 15 16 16 17 17 17 17 18 18 18 18 19 18 18 18 18 18 18 18 18 18 18 18 18 18 19 19
17 18 18 18 18 17 18 18 18 18 18 18 18 17 17 17 16 16 17 17 18 18 19 19 19 19 19 19 20 19 19 19 19 19 18 19 19 19 19 19 19 20 20 20
18 18 19 19 19 19 20 19 19 19 19 19 19 19 18 18 18 18 18 18 19 20 20 20 20 20 21 21 20 20 20 20 20 19 19 20 20 20 20 20 21 21 21 21
18 19 19 20 20 20 20 19 19 20 21 21 21 21 20 19 19 20 20 19 20 21 21 22 22 22 22 22 22 21 21 21 21 21 21 21 21 21 21 22 22 22 22 22
19 20 20 21 21 20 20 20 20 21 21 21 22 21 21 20 20 20 21 21 21 21 22 22 22 22 22 22 23 22 22 22 22 22 22 22 22 22 23 23 23 23 23 23
20 20 20 21 21 21 21 21 21 22 22 23 22 22 21 21 21 21 21 22 22 22 22 22 22 22 22 23 23 23 23 23 23 23 23 23 23 23 24 24 24 24 24 24
21 20 21 21 22 22 22 22 22 22 22 22 23 23 22 22 22 22 22 23 23 22 22 22 22 22 23 23 23 23 23 23 23 23 24 24 24 24 24 24 24 24 24 24
21 22 22 22 22 23 23 22 23 23 23 23 23 23 23 22 22 22 22 22 22 23 23 23 22 22 23 23 23 23 23 23 24 25 25 25 25 24 24 24 24 25 25 25
22 21 22 23 23 24 23 22 22 23 24 23 23 23 24 24 23 23 23 22 22 23 23 24 23 23 23 23 24 24 24 25 25 26 26 25 26 25 25 25 25 25 26 26
24 23 23 23 24 24 23 23 23 23 23 23 23 24 24 24 24 24 23 23 23 24 24 24 24 24 24 24 25 25 25 26 26 26 26 27 27 26 26 26 26 26 27 27
23 23 24 24 24 24 23 23 23 23 23 23 24 24 24 24 24 24 24 24 24 24 25 25 25 24 25 25 26 26 26 26 27 27 27 27 27 27 27 27 27 27 28 28
23 24 24 24 24 24 23 23 24 24 24 24 24 25 25 25 25 25 25 25 25 25 25 26 26 25 25 26 26 27 27 28 28 28 28 28 28 27 27 28 28 28 29 29
24 25 25 25 25 25 24 24 24 24 25 25 25 25 25 25 25 26 25 25 25 26 26 26 26 26 26 26 26 27 27 28 28 29 29 28 28 28 28 28 29 29 30 30
26 25 25 26 26 25 25 25 26 26 26 26 26 27 26 25 25 25 26 26 26 26 26 26 26 26 26 26 26 27 27 28 28 29 29 29 28 29 29 30 31 31 31 32
26 26 27 27 27 27 26 26 27 27 26 26 26 26 26 26 25 25 25 26 25 26 26 27 27 27 27 27 27 28 28 28 29 30 30 30 30 30 31 31 32 32 32 32
27 28 28 28 28 28 28 28 28 28 28 28 27 27 26 26 26 26 26 26 26 26 27 28 28 28 28 28 28 28 28 29 29 30 30 30 30 31 31 31 32 32 32 31
28 28 29 29 29 29 29 29 29 29 29 29 28 28 28 27 27 27 28 27 27 28 28 29 29 29 29 29 29 29 30 30 30 30 30 30 31 31 31 31 31 31 32 32
Wind_Direction
247 247 246 247 249 251 253 253 256 259 259 262 263 262 262 261 263 265 268 271 273 276 279 277 277 280 281 282 285 288 287 282 280 280 281 283 283 284 282 285 287 287 288 288
248 248 249 250 250 251 254 255 257 259 260 262 262 262 262 262 263 265 268 271 273 276 280 279 278 279 281 284 285 287 286 284 283 281 281 284 284 284 284 285 286 288 290 291
249 249 249 250 251 253 255 255 257 260 263 264 264 263 263 264 264 265 268 270 272 276 280 280 279 279 281 281 282 283 285 285 284 283 283 284 285 286 286 286 286 288 291 292
247 247 249 250 250 251 255 257 259 262 262 264 266 266 264 265 265 266 268 269 271 274 278 279 280 280 280 279 281 284 286 286 286 286 286 286 286 286 286 284 285 287 289 290
249 250 249 250 251 254 256 259 261 262 263 265 266 267 266 264 264 266 267 268 271 274 277 279 280 280 282 282 283 285 287 288 287 285 286 286 286 286 286 285 285 286 287 289
248 251 251 251 254 256 258 261 263 263 265 266 267 267 266 264 264 264 266 268 270 272 276 278 278 279 281 280 281 283 285 288 287 284 285 285 285 286 285 285 285 285 286 289
248 249 250 251 253 256 257 259 263 264 265 267 267 266 265 264 263 263 265 266 268 270 273 275 277 279 280 279 279 281 284 286 287 285 284 284 284 285 285 285 285 285 287 288
249 252 251 251 254 256 256 256 259 262 265 269 269 266 265 265 264 264 265 266 266 268 272 274 276 278 279 280 281 281 282 284 285 285 284 283 284 285 285 286 286 286 287 289
249 250 251 252 254 254 254 255 259 262 265 268 269 268 266 265 265 265 264 265 266 268 271 274 277 279 279 280 282 282 282 283 284 284 283 283 284 285 286 287 287 286 288 289
251 252 252 253 253 253 254 256 258 262 264 267 269 268 267 266 266 267 266 265 266 267 270 273 277 280 279 279 281 282 280 281 282 283 284 283 283 284 285 286 288 288 289 290
250 253 253 252 252 255 255 257 258 260 263 266 268 269 269 268 268 267 267 266 266 267 270 273 276 278 280 279 279 281 281 280 281 281 281 283 284 284 284 285 286 288 289 289
250 253 254 255 255 255 256 256 256 258 263 265 267 269 269 269 269 269 269 268 267 267 270 274 277 278 279 278 278 280 280 280 280 280 281 283 283 283 284 285 286 286 287 288
251 252 254 254 255 255 255 256 257 258 262 264 266 269 270 269 269 270 270 270 270 270 271 274 277 277 277 277 277 279 279 279 279 280 281 283 282 283 283 284 286 285 285 286
253 254 255 255 257 257 256 257 258 260 262 265 267 269 269 269 270 270 270 272 273 274 274 274 275 275 276 277 278 279 279 279 279 279 281 283 283 283 284 285 286 286 286 287
256 258 258 257 257 257 258 259 261 262 264 266 268 269 269 270 270 271 271 272 273 274 273 273 275 275 275 277 277 277 278 278 278 279 280 282 283 283 283 285 285 286 286 286
259 262 263 261 259 260 260 261 262 263 263 265 268 268 269 270 271 272 273 271 271 272 272 273 275 275 275 277 277 276 277 277 278 280 281 282 283 282 284 285 285 286 286 286
260 262 263 263 263 263 262 262 263 264 264 267 269 270 270 270 271 272 274 274 273 272 273 273 273 273 275 275 275 276 276 276 278 280 283 284 284 283 284 285 286 286 285 285
261 263 262 262 263 263 266 264 264 265 266 267 269 270 270 270 271 271 273 274 274 273 273 273 274 274 274 275 275 275 276 276 278 279 282 285 286 286 287 288 288 288 287 286
261 263 262 261 263 265 265 264 265 268 267 266 267 268 269 269 270 271 272 272 273 273 272 273 274 275 274 274 274 275 277 277 279 281 283 285 285 285 286 287 288 288 287 287
264 263 263 263 265 266 265 265 265 266 266 266 268 269 270 269 269 270 271 271 272 274 273 272 273 275 274 273 273 274 276 277 279 281 283 284 285 285 286 287 288 288 288 287
264 264 263 264 265 266 265 266 267 267 269 269 270 270 270 269 268 269 270 270 272 274 275 272 272 273 274 274 275 275 277 278 279 280 281 282 283 285 286 286 288 288 289 288
263 264 264 264 265 267 266 266 267 268 270 271 270 270 272 271 270 269 269 270 272 275 276 275 273 274 275 276 276 277 278 280 281 280 280 282 283 284 286 287 288 289 290 289
264 264 264 265 266 266 266 267 268 269 271 272 272 272 272 272 271 269 268 269 270 273 274 276 275 275 276 277 277 277 278 281 282 280 281 281 282 285 286 287 288 289 289 289
267 266 265 265 265 264 265 265 266 267 269 271 273 274 273 272 271 270 269 269 270 273 274 276 276 275 277 278 277 278 278 280 281 280 281 282 283 285 287 288 289 290 289 289
268 267 266 266 267 266 264 265 266 267 268 270 272 273 273 272 270 270 269 269 270 272 275 277 278 277 277 277 277 277 279 280 281 280 280 281 283 285 287 288 290 290 290 289
267 267 267 266 266 265 265 264 265 267 269 270 271 272 272 271 271 271 270 269 270 272 275 277 278 278 277 277 277 277 278 280 281 280 280 281 283 284 286 288 289 289 289 289
Height
5852 5854 5855 5856 5857 5858 5858 5859 5859 5860 5860 5860 5860 5861 5861 5861 5861 5861 5861 5861 5861 5861 5860 5860 5859 5859 5858 5857 5856 5855 5854 5854 5853 5852 5851 5850 5849 5848 5847 5846 5844 5843 5842 5841
5850 5851 5852 5853 5854 5855 5855 5856 5857 5857 5857 5857 5857 5858 5858 5858 5858 5858 5858 5858 5858 5858 5857 5857 5856 5856 5855 5854 5854 5853 5852 5851 5850 5849 5848 5847 5846 5844 5843 5842 5841 5840 5839 5837
5847 5849 5849 5850 5851 5851 5852 5853 5853 5854 5854 5854 5854 5855 5855 5855 5855 5855 5855 5855 5855 5855 5854 5854 5853 5853 5852 5851 5851 5850 5848 5847 5846 5845 5844 5843 5842 5841 5840 5839 5838 5836 5835 5834
5843 5844 5845 5846 5847 5848 5849 5850 5850 5850 5850 5851 5852 5852 5852 5852 5851 5851 5851 5851 5851 5851 5851 5850 5850 5849 5848 5848 5847 5846 5845 5844 5843 5842 5841 5840 5839 5838 5836 5835 5834 5832 5831 5830
5840 5841 5842 5843 5844 5845 5846 5846 5846 5847 5847 5847 5848 5848 5849 5848 5848 5848 5848 5848 5848 5848 5847 5847 5846 5846 5845 5844 5844 5843 5842 5841 5840 5839 5837 5836 5835 5834 5832 5831 5830 5828 5827 5825
5836 5837 5838 5839 5840 5841 5841 5842 5843 5843 5843 5844 5844 5845 5845 5845 5845 5844 5844 5844 5844 5844 5844 5843 5842 5842 5841 5841 5840 5839 5838 5837 5836 5835 5834 5832 5831 5829 5828 5827 5825 5824 5823 5821
5832 5833 5834 5835 5836 5837 5838 5839 5840 5840 5840 5841 5841 5840 5842 5841 5841 5840 5840 5840 5840 5840 5839 5839 5839 5838 5837 5837 5836 5835 5834 5833 5831 5830 5829 5828 5827 5825 5824 5823 5821 5820 5818 5817
5828 5829 5830 5831 5832 5833 5834 5836 5837 5837 5837 5837 5836 5836 5838 5837 5836 5836 5836 5836 5836 5836 5835 5835 5835 5834 5833 5832 5831 5831 5830 5829 5827 5826 5825 5824 5822 5821 5820 5818 5817 5815 5814 5812
5824 5826 5826 5827 5828 5829 5830 5831 5832 5832 5832 5833 5833 5833 5833 5833 5832 5832 5832 5832 5832 5832 5831 5831 5830 5829 5829 5828 5827 5826 5825 5824 5823 5822 5820 5819 5818 5816 5815 5814 5812 5811 5809 5807
5819 5821 5822 5822 5823 5824 5826 5826 5827 5827 5828 5828 5829 5829 5829 5828 5828 5828 5828 5828 5827 5827 5827 5826 5825 5825 5824 5823 5822 5821 5820 5819 5818 5817 5816 5814 5813 5812 5810 5809 5807 5806 5804 5802
5814 5816 5817 5818 5819 5820 5821 5822 5822 5823 5824 5824 5824 5826 5824 5824 5824 5823 5823 5823 5823 5822 5822 5821 5820 5820 5819 5818 5817 5816 5815 5814 5813 5811 5810 5809 5808 5806 5805 5803 5802 5800 5799 5797
5809 5811 5812 5814 5814 5815 5816 5817 5818 5819 5818 5818 5819 5822 5819 5819 5818 5818 5818 5818 5817 5817 5816 5816 5815 5814 5813 5813 5812 5811 5810 5809 5807 5806 5805 5804 5803 5801 5800 5798 5796 5795 5793 5791
5804 5806 5807 5808 5811 5810 5811 5812 5812 5813 5813 5813 5814 5816 5813 5813 5813 5812 5812 5811 5811 5811 5810 5810 5809 5808 5808 5807 5806 5805 5804 5803 5802 5800 5799 5798 5797 5795 5794 5792 5790 5788 5787 5785
5799 5801 5803 5804 5804 5804 5805 5806 5807 5807 5807 5808 5808 5808 5808 5807 5807 5807 5806 5805 5805 5805 5804 5804 5803 5802 5801 5800 5800 5799 5798 5797 5796 5794 5793 5792 5790 5789 5787 5786 5784 5782 5780 5778
5794 5795 5796 5797 5798 5799 5800 5800 5801 5801 5801 5802 5802 5802 5802 5801 5801 5801 5800 5799 5799 5798 5798 5797 5796 5796 5795 5794 5793 5792 5791 5790 5789 5788 5787 5785 5784 5782 5780 5779 5777 5775 5773 5771
5788 5789 5790 5791 5792 5793 5793 5795 5795 5795 5795 5795 5795 5795 5795 5795 5794 5794 5793 5793 5793 5792 5791 5790 5790 5789 5788 5787 5786 5786 5785 5784 5782 5781 5780 5778 5776 5775 5773 5771 5769 5768 5766 5764
5783 5784 5784 5785 5786 5786 5787 5788 5788 5788 5788 5789 5788 5789 5788 5788 5788 5788 5787 5786 5786 5785 5785 5784 5783 5782 5782 5781 5780 5779 5778 5777 5776 5774 5772 5771 5769 5767 5765 5764 5762 5760 5758 5757
5777 5777 5778 5778 5780 5779 5783 5781 5782 5782 5782 5782 5781 5782 5781 5781 5781 5781 5780 5780 5779 5778 5778 5777 5776 5775 5774 5773 5773 5772 5771 5770 5768 5767 5765 5763 5762 5759 5758 5756 5754 5753 5751 5749
5771 5771 5771 5772 5772 5773 5774 5774 5774 5775 5775 5774 5774 5774 5774 5774 5774 5773 5773 5773 5772 5771 5770 5769 5769 5768 5767 5766 5765 5764 5763 5762 5761 5759 5757 5756 5754 5752 5750 5749 5747 5745 5743 5741
5764 5764 5765 5765 5765 5766 5768 5767 5767 5768 5767 5767 5767 5767 5767 5766 5767 5767 5766 5765 5765 5764 5763 5762 5761 5760 5759 5758 5758 5757 5756 5754 5753 5752 5750 5748 5747 5745 5743 5741 5739 5737 5735 5733
5757 5757 5758 5758 5757 5758 5760 5759 5760 5761 5761 5760 5759 5759 5759 5759 5759 5759 5758 5758 5757 5756 5755 5754 5753 5752 5751 5750 5750 5749 5748 5747 5745 5744 5742 5741 5739 5737 5735 5733 5731 5729 5727 5725
5750 5750 5751 5751 5751 5753 5752 5752 5753 5753 5752 5751 5751 5751 5751 5751 5750 5750 5750 5750 5749 5748 5747 5746 5745 5744 5743 5742 5742 5741 5740 5739 5737 5736 5734 5733 5731 5729 5727 5725 5723 5721 5719 5717
5742 5743 5743 5744 5745 5744 5744 5744 5744 5744 5744 5743 5743 5743 5742 5742 5742 5742 5742 5741 5741 5740 5739 5738 5737 5736 5735 5734 5733 5732 5731 5730 5729 5727 5725 5724 5722 5720 5718 5716 5714 5712 5710 5708
5734 5734 5734 5735 5735 5735 5735 5735 5735 5735 5735 5735 5735 5734 5734 5734 5734 5733 5733 5733 5732 5732 5731 5730 5729 5728 5727 5726 5725 5724 5722 5721 5720 5718 5717 5715 5713 5712 5710 5708 5705 5703 5701 5699
5725 5725 5725 5726 5727 5726 5727 5727 5727 5726 5726 5726 5726 5726 5725 5725 5725 5725 5725 5724 5724 5723 5723 5722 5721 5720 5719 5717 5716 5715 5713 5712 5710 5709 5707 5706 5704 5702 5700 5698 5696 5694 5692 5689
5716 5716 5716 5717 5718 5717 5718 5717 5717 5717 5717 5717 5717 5717 5716 5716 5716 5716 5716 5715 5715 5715 5714 5713 5712 5710 5709 5708 5707 5705 5704 5703 5702 5700 5698 5697 5695 5693 5691 5689 5687 5684 5682 5680